OPS 4682 DEB, 38410

Orbit data source: Space-Track

OPS 4682 DEB, 38410 is space debris in LEO originally from a launch on Sat, 03 Apr 1965 UTC launched from the Air Force Western Test Range (AFWTR). Debris objects in space refer to the collection of defunct objects orbiting the Earth. Examples of debris include non-operational satellites, rocket bodies, and fragments generated from explosions, collisions, or faulty payload assembly.

Loading next visibility...
Identifier
38410, 1965-027DP
Orbit
LEO
Country
Flag of USUS
Related business
Manufacturer
Unknown
Mission
Spacecraft
Bus & Motor
Unknown
Mass
Unknown
Launch date (UTC)
1965-04-03 (61 years ago)
Launch vehicle
Unknown
Launch site
Air Force Western Test Range (AFWTR)
Object type
Payload
Rocket body
Debris
Shape & HBR
Unknown shape, 0.1 m
Radar Cross Section
Medium (>0.1 m² and <1 m²)

Expand to show TLE details & history
Last TLE update: 1 day ago

TLE from 1 day ago
0 OPS 4682 DEB
1 38410U 65027DP  26207.21230600  .00000652  00000-0  22125-2 0  9994
2 38410  90.2448  11.6752 0032192   7.1289 353.0283 12.97578699636069
Epoch: 2026-07-26T05:05Z
TLE epoch observation values (Epoch: 2026-07-26T05:05:43.238Z)
Latitude
-0.00003°
Longitude
-8.66843°
Altitude
1,250.021 km
Speed
7.242 km/s
True Right ascension
00h 46m 42s
True Declination
0° 00' 00"
Sunlit
Object was in daylight at epoch
Visualization orbit readout
Latitude
Unknown
Longitude
Unknown
Altitude
Unknown
Speed
Unknown
Apparent Right ascension
Unknown
Apparent Declination
Unknown
Sunlit
N/A
Visualization observer readout
Local Sidereal Time
21:44:39
Azimuth
Unknown
Elevation
Unknown
Doppler factor
Unknown
Orbital elements
Apogee altitude
1,293.335 km
Perigee altitude
1,244.102 km
Semi-major axis
7,646.856 km
Eccentricity
0.00322
Inclination
90.2448°
RAAN
11.6752°
Arg. of periapsis
7.1289°
True anomaly
352.98334°
Mean anomaly
353.0283°
Eccentric anomaly
353.00584°
Mean motion
3.24578 °/min
Orbital period
110.91 mins
BSTAR
0.0022125
Loading maneuver chart data...
Computing Atmospheric mass density...
Loading historical data...
Loading historical data...
Loading historical data...
Loading historical data...
Loading historical data...
Loading historical data...
Loading historical data...

Documentation

Showing up to 5 results
|